Satellite-Ground Cal/Val Site Overpasses Predictions

Prediction of Satellite NPP Overpassing Cal/Val Site: Antarctic Dome C

Ground Cal/Val Site Location: Latitude: -75.10, Longitude: 123.35; Satellite-Ground Site NADIR distance within 100 km.

Table of predicted overpasses for the next 14.0 days since TLE Epoch: 3/23/2025
Interval Starting Time Ending Time Minimum Distance Time Minimum Distance (km)
1 03/24/2025 14:55:09 03/24/2025 14:55:37 03/24/2025 14:55:23 20.95
2 03/25/2025 14:36:24 03/25/2025 14:36:39 03/25/2025 14:36:31 86.10
3 03/26/2025 07:37:55 03/26/2025 07:38:23 03/26/2025 07:38:09 30.27
4 03/27/2025 07:19:09 03/27/2025 07:19:26 03/27/2025 07:19:18 80.20
5 03/29/2025 15:01:16 03/29/2025 15:01:40 03/29/2025 15:01:28 56.72
6 03/30/2025 14:42:25 03/30/2025 14:42:50 03/30/2025 14:42:37 52.53
7 03/31/2025 07:44:04 03/31/2025 07:44:26 03/31/2025 07:44:15 64.30
8 04/01/2025 07:25:10 04/01/2025 07:25:36 04/01/2025 07:25:23 44.20
9 04/03/2025 15:07:29 04/03/2025 15:07:39 04/03/2025 15:07:34 92.82
10 04/04/2025 14:48:28 04/04/2025 14:48:56 04/04/2025 14:48:42 18.37
